Weather History for Logansport, IN

Change the Weather History Date:

Thursday, October 4, 2012

  Actual Average Record
Temperature  
Mean Temperature 64 °F -  
Max Temperature 77 °F 74 °F 82 °F (2013)
Min Temperature 51 °F 50 °F 37 °F (2014)
Degree Days  
Heating Degree Days 1    
Growing Degree Days 14 (Base 50)    
Moisture  
Dew Point 53 °F    
Average Humidity 71    
Maximum Humidity 94    
Minimum Humidity 41    
Precipitation  
Precipitation 0.00 in - - ()
Sea Level Pressure  
Sea Level Pressure 30.10 in    
Wind  
Wind Speed 8 mph ()    
Max Wind Speed 21 mph    
Max Gust Speed 29 mph    
Visibility 10.0 miles    
Events Rain    
Averages and records for this station are not official NWS values.
T = Trace of Precipitation, MM = Missing Value Source: Averaged Metar Reports

Daily Weather History Graph

Daily Weather History Graph

Search for Another Location

Airport:

Trip Planner

Search our weather history database for the weather conditions in past years. The results will help you decide how hot, cold, wet, or windy it might be!

Date:

Astronomy

Oct. 04, 2012 Rise Set
Actual Time 7:45 AM EDT 7:21 PM EDT
Civil Twilight 7:18 AM EDT 7:49 PM EDT
Nautical Twilight 6:46 AM EDT 8:20 PM EDT
Astronomical Twilight 6:14 AM EDT 8:52 PM EDT
Moon 9:55 PM EDT (10/4) 12:03 PM EDT (10/4)
Length of Visible Light 12h 30m
Length of Day
11h 36m
Waning Gibbous, 82% of the Moon is Illuminated
Oct 4
Waning Gibbous
Oct 8
Last Quarter
Oct 15
New
Oct 21
First Quarter
Oct 29
Full

Hourly Weather History & Observations

Time (EDT) Temp. Dew Point Humidity Pressure Visibility Wind Dir Wind Speed Gust Speed Precip Events Conditions
12:35 AM 53.6 °F 50.0 °F 88% 30.08 in 10.0 mi South 5.8 mph - N/A   Clear
12:55 AM 53.6 °F 50.0 °F 88% 30.08 in 10.0 mi South 5.8 mph - N/A   Mostly Cloudy
1:15 AM 55.4 °F 51.8 °F 88% 30.08 in 10.0 mi South 5.8 mph - N/A   Mostly Cloudy
1:35 AM 53.6 °F 50.0 °F 88% 30.08 in 10.0 mi South 5.8 mph - N/A   Scattered Clouds
1:55 AM 53.6 °F 50.0 °F 88% 30.08 in 10.0 mi South 4.6 mph - N/A   Clear
2:15 AM 53.6 °F 50.0 °F 88% 30.09 in 10.0 mi SW 6.9 mph - N/A   Clear
2:35 AM 53.6 °F 50.0 °F 88% 30.09 in 10.0 mi SSW 6.9 mph - N/A   Clear
2:55 AM 53.6 °F 50.0 °F 88% 30.09 in 10.0 mi SSW 6.9 mph - N/A   Clear
3:15 AM 53.6 °F 50.0 °F 88% 30.09 in 10.0 mi SSW 6.9 mph - N/A   Clear
3:35 AM 53.6 °F 50.0 °F 88% 30.09 in 10.0 mi SSW 6.9 mph - N/A   Scattered Clouds
3:55 AM 55.4 °F 51.8 °F 88% 30.09 in 10.0 mi SSW 6.9 mph - N/A   Mostly Cloudy
4:15 AM 53.6 °F 50.0 °F 88% 30.10 in 10.0 mi SW 6.9 mph - N/A   Scattered Clouds
4:35 AM 53.6 °F 50.0 °F 88% 30.11 in 10.0 mi SW 8.1 mph - N/A   Clear
4:55 AM 53.6 °F 50.0 °F 88% 30.11 in 10.0 mi SW 8.1 mph - N/A   Scattered Clouds
5:15 AM 51.8 °F 50.0 °F 94% 30.11 in 10.0 mi SW 6.9 mph - N/A   Scattered Clouds
5:35 AM 53.6 °F 51.8 °F 94% 30.11 in 10.0 mi SSW 9.2 mph - N/A   Scattered Clouds
5:55 AM 53.6 °F 51.8 °F 94% 30.12 in 10.0 mi SSW 5.8 mph - N/A   Scattered Clouds
6:15 AM 55.4 °F 51.8 °F 88% 30.12 in 10.0 mi SSW 8.1 mph - N/A   Mostly Cloudy
6:35 AM 53.6 °F 51.8 °F 94% 30.12 in 10.0 mi SSW 6.9 mph - N/A   Overcast
6:55 AM 53.6 °F 51.8 °F 94% 30.12 in 10.0 mi SSW 4.6 mph - N/A   Overcast
7:15 AM 53.6 °F 51.8 °F 94% 30.13 in 10.0 mi SSW 5.8 mph - N/A   Overcast
7:35 AM 53.6 °F 51.8 °F 94% 30.12 in 10.0 mi South 4.6 mph - N/A   Overcast
7:55 AM 53.6 °F 51.8 °F 94% 30.12 in 10.0 mi South 5.8 mph - N/A   Overcast
8:15 AM 53.6 °F 51.8 °F 94% 30.12 in 10.0 mi South 5.8 mph - N/A   Overcast
8:35 AM 55.4 °F 51.8 °F 88% 30.12 in 10.0 mi South 5.8 mph - N/A   Overcast
8:55 AM 55.4 °F 51.8 °F 88% 30.13 in 10.0 mi SSW 8.1 mph - N/A   Mostly Cloudy
9:15 AM 57.2 °F 53.6 °F 88% 30.13 in 10.0 mi SSW 10.4 mph - N/A   Scattered Clouds
9:35 AM 59.0 °F 53.6 °F 82% 30.14 in 10.0 mi SSW 9.2 mph - N/A   Clear
9:55 AM 60.8 °F 53.6 °F 77% 30.14 in 10.0 mi SW 10.4 mph - N/A   Clear
10:15 AM 62.6 °F 53.6 °F 72% 30.15 in 10.0 mi SW 9.2 mph - N/A   Clear
10:35 AM 62.6 °F 53.6 °F 72% 30.14 in 10.0 mi SW 11.5 mph - N/A   Clear
10:55 AM 64.4 °F 55.4 °F 73% 30.14 in 10.0 mi SSW 10.4 mph - N/A   Clear
11:15 AM 66.2 °F 55.4 °F 68% 30.14 in 10.0 mi SW 9.2 mph - N/A   Clear
11:55 AM 69.8 °F 55.4 °F 60% 30.13 in 10.0 mi SW 12.7 mph 16.1 mph N/A   Clear
12:15 PM 69.8 °F 55.4 °F 60% 30.12 in 10.0 mi SSW 12.7 mph 18.4 mph N/A   Clear
12:35 PM 71.6 °F 55.4 °F 57% 30.12 in 10.0 mi SSW 12.7 mph - N/A   Clear
12:55 PM 71.6 °F 55.4 °F 57% 30.12 in 10.0 mi SSW 11.5 mph - N/A   Clear
1:15 PM 73.4 °F 55.4 °F 53% 30.11 in 10.0 mi SW 11.5 mph 19.6 mph N/A   Clear
1:35 PM 73.4 °F 55.4 °F 53% 30.11 in 10.0 mi SW 17.3 mph - N/A   Clear
1:55 PM 73.4 °F 55.4 °F 53% 30.10 in 10.0 mi SW 15.0 mph 24.2 mph N/A   Clear
2:15 PM 75.2 °F 53.6 °F 47% 30.09 in 10.0 mi SW 17.3 mph 23.0 mph N/A   Scattered Clouds
2:35 PM 77.0 °F 53.6 °F 44% 30.08 in 10.0 mi SW 18.4 mph 21.9 mph N/A   Scattered Clouds
2:55 PM 77.0 °F 53.6 °F 44% 30.08 in 10.0 mi SW 15.0 mph 23.0 mph N/A   Mostly Cloudy
3:15 PM 77.0 °F 51.8 °F 41% 30.08 in 10.0 mi WSW 20.7 mph 27.6 mph N/A   Scattered Clouds
3:35 PM 77.0 °F 51.8 °F 41% 30.08 in 10.0 mi WSW 19.6 mph 28.8 mph N/A   Scattered Clouds
3:55 PM 77.0 °F 51.8 °F 41% 30.08 in 10.0 mi SW 19.6 mph 24.2 mph N/A   Scattered Clouds
4:15 PM 77.0 °F 53.6 °F 44% 30.08 in 10.0 mi SW 17.3 mph 25.3 mph N/A   Mostly Cloudy
4:35 PM 75.2 °F 53.6 °F 47% 30.07 in 10.0 mi SW 20.7 mph 25.3 mph N/A   Scattered Clouds
5:15 PM 77.0 °F 53.6 °F 44% 30.06 in 10.0 mi SW 16.1 mph - N/A   Scattered Clouds
5:35 PM 77.0 °F 53.6 °F 44% 30.06 in 10.0 mi SW 17.3 mph 25.3 mph N/A   Clear
5:55 PM 75.2 °F 51.8 °F 44% 30.06 in 10.0 mi SSW 13.8 mph 18.4 mph N/A   Clear
6:15 PM 73.4 °F 51.8 °F 47% 30.06 in 10.0 mi SW 12.7 mph 20.7 mph N/A   Clear
6:35 PM 73.4 °F 51.8 °F 47% 30.06 in 10.0 mi SSW 10.4 mph - N/A   Clear
6:55 PM 71.6 °F 53.6 °F 53% 30.06 in 10.0 mi SSW 11.5 mph - N/A   Clear
7:15 PM 71.6 °F 53.6 °F 53% 30.06 in 10.0 mi SSW 10.4 mph - N/A   Clear
7:35 PM 69.8 °F 53.6 °F 56% 30.06 in 10.0 mi SSW 8.1 mph - N/A   Mostly Cloudy
7:55 PM 69.8 °F 53.6 °F 56% 30.06 in 10.0 mi SSW 9.2 mph - N/A   Overcast
8:15 PM 69.8 °F 53.6 °F 56% 30.06 in 10.0 mi SSW 10.4 mph - N/A   Overcast
8:35 PM 69.8 °F 53.6 °F 56% 30.06 in 10.0 mi SSW 10.4 mph - N/A   Overcast
9:15 PM 68.0 °F 55.4 °F 64% 30.08 in 10.0 mi WSW 10.4 mph - N/A   Overcast
9:35 PM 68.0 °F 55.4 °F 64% 30.08 in 10.0 mi NW 5.8 mph - N/A   Mostly Cloudy
10:15 PM 62.6 °F 53.6 °F 72% 30.09 in 10.0 mi Calm Calm - N/A   Overcast
10:35 PM 64.4 °F 53.6 °F 68% 30.10 in 10.0 mi WNW 4.6 mph - N/A   Overcast
10:55 PM 62.6 °F 51.8 °F 68% 30.11 in 10.0 mi WNW 8.1 mph - N/A   Mostly Cloudy
11:15 PM 62.6 °F 51.8 °F 68% 30.13 in 10.0 mi WNW 11.5 mph - N/A   Mostly Cloudy
11:35 PM 59.0 °F 51.8 °F 77% 30.12 in 10.0 mi WNW 6.9 mph - N/A Rain Light Rain
11:55 PM 55.4 °F 53.6 °F 94% 30.13 in 10.0 mi NW 4.6 mph - N/A Rain Light Rain